Location: Bennemühlen
(52.5740°N, 9.7135°E)
Time: 07:23:52
(UTC+00:00)

A-11 Canister half - Pass Details

Date: 23 February 2026
Orbit: 1512 x 1687 km, 47.2° (Epoch: 8 March)

Event Time Altitude Azimuth Distance (km) Brightness Sun altitude
Rises 01:07:55 0° 285° (WNW) 4,908 - -43.3°
Reaches altitude 10° 01:11:28 10° 277° (W) 3,898 - -43.0°
Maximum altitude 01:19:58 34° 218° (SW) 2,428 - -42.3°
Drops below altitude 10° 01:28:13 10° 158° (SSE) 3,767 - -41.5°
Sets 01:31:36 0° 150° (SSE) 4,724 - -41.2°
